Regional Weather Roundup
Issued by NWS

Home | Current Version | Previous Version | Graphics & Text | Print | Product List | Glossary On
Versions: 1 2 3 4 5 6 7 8 9 10 11 12 13 14 15 16 17 18 19 20 21 22 23 24 25 26 27 28 29 30 31 32 33 34 35 36 37 38 39 40 41 42 43 44 45 46 47 48 49 50
000
ASUS43 KDTX 282310
RWRMI
MICHIGAN HOURLY REGIONAL WEATHER ROUNDUP
NATIONAL WEATHER SERVICE DETROIT/PONTIAC MI
700 PM EDT THU MAY 28 2015

NOTE: "FAIR" INDICATES FEW OR NO CLOUDS BELOW 12,000 FEET WITH NO
SIGNIFICANT WEATHER AND/OR OBSTRUCTION TO VISIBILITY.

MIZ047>049-052>055-059>063-066>070-074>076-081>083-290000-
SOUTHEAST LOWER MICHIGAN

CITY           SKY/WX    TMP DP  RH WIND       PRES   REMARKS
ADRIAN         SUNNY     76  54  46 E7        30.21S
ALMA           MOSUNNY   79  56  44 S7        30.17F
ANN ARBOR      SUNNY     74  56  53 SE8       30.21F
BAD AXE        PTSUNNY   76  56  51 S15       30.19S
CARO           PTSUNNY   79  59  50 S12       30.18S
DETROIT CITY   MOSUNNY   75  52  44 E7        30.21F
DETROIT        MOSUNNY   76  51  41 S6        30.22F
FLINT          MOSUNNY   80  57  45 S10       30.20S
GROSSE ILE     SUNNY     70  59  68 S5        30.21S
HILLSDALE      SUNNY     78  53  41 SE6       30.20F
HOWELL         SUNNY     76  54  45 SE8       30.20F

CITY           SKY/WX    TMP DP  RH WIND       PRES   REMARKS
JACKSON        SUNNY     76  56  49 S10       30.20S
LAMBERTVILLE   SUNNY     72  55  56 E5        30.21S
LANSING        SUNNY     78  56  46 S10       30.19F
LAPEER         FAIR      77  56  49 S10       30.21S
MASON          SUNNY     74  56  51 SE7       30.19F
MONROE         SUNNY     73  54  49 E6        30.20F
MT. CLEMENS    PTSUNNY   73  54  51 SE7       30.20F
PONTIAC        MOSUNNY   75  54  47 SE8       30.21F
PORT HOPE        N/A     73  55  53 SE9       30.18S
PORT HURON     MOSUNNY   73  55  53 S9        30.23S
TRI CITIES     PTSUNNY   81  57  43 S10       30.17F
MIDLAND        FAIR      81  57  43 S7        30.15F
TROY           MOSUNNY   79  50  36 SE7       30.23F
SAGINAW HB     PTSUNNY   79  54  41 S12       30.17S
$$
MIZ043>046-050>051-056>058-064>065-071>073-077>080-290000-
SOUTHWEST LOWER MICHIGAN

CITY           SKY/WX    TMP DP  RH WIND       PRES   REMARKS
BATTLE CREEK   SUNNY     79  54  41 SE8       30.18F
BENTON HARBOR  SUNNY     80  53  39 E10       30.13F
BIG RAPIDS     MOSUNNY   79  54  42 S10       30.16S
COLDWATER      SUNNY     75  53  45 SE7       30.18F
FREMONT        FAIR      79  49  34 W5        30.16F
HOLLAND        SUNNY     80  59  48 CALM      30.16F
GRAND RAPIDS   MOSUNNY   80  55  42 SE12      30.16F
IONIA          FAIR      81  50  34 S8        30.16F
KALAMAZOO      SUNNY     80  54  40 SE8       30.17F
LUDINGTON      SUNNY     71  57  61 SW7       30.17S
MARSHALL       MOSUNNY   78  56  46 SE7       30.17F
MOUNT PLEASANT MOSUNNY   79  57  46 S8        30.16F
MUSKEGON       MOSUNNY   77  57  50 SW5       30.16F
SOUTH HAVEN    SUNNY     80  50  34 S7        30.14F
$$
MIZ016>042-290000-
NORTHERN LOWER MICHIGAN

CITY           SKY/WX    TMP DP  RH WIND       PRES   REMARKS
ALPENA         SUNNY     67  54  63 E6        30.17F
BEAVER ISLAND  MOSUNNY   60  53  77 W3        30.16S
BELLAIRE       CLOUDY    76  58  52 W3        30.14S
CADILLAC       MOSUNNY   77  60  54 SW8       30.17S
CHARLEVOIX     SUNNY     64  56  73 NW5       30.18F
FRANKFORT      SUNNY     73  52  49 SW6       30.15F
GAYLORD        MOSUNNY   81  50  33 N5        30.15S
GRAYLING       PTSUNNY   80  49  33 SW6       30.16S
HARBOR SPRINGS SUNNY     61  53  72 CALM      30.15S
HOUGHTON LAKE  MOSUNNY   77  56  48 W12       30.16S
MANISTEE       SUNNY     75  54  46 SW7       30.16F
OSCODA         SUNNY     69  55  60 SE7       30.17F
PELLSTON       SUNNY     73  58  59 E9        30.15F
ROGERS CITY    SUNNY     58  51  76 NW3       30.17S
TRAVERSE CITY  MOSUNNY   64  54  69 N3        30.14R
$$
MIZ007>008-015-290000-
EASTERN UPPER MICHIGAN

CITY           SKY/WX    TMP DP  RH WIND       PRES   REMARKS
KINROSS        SUNNY     70  57  64 SE16      30.16S
MACKINAC ISLAN SUNNY     54  48  80 E12G17    30.16S
NEWBERRY       MOSUNNY   68  55  64 S10       30.14S
S. S. MARIE    SUNNY     69  56  62 SE9       30.15F
MUNISING         N/A     75  57  53 S8G20     30.06F
$$
MIZ004>006-011>014-085-290000-
CENTRAL UPPER MICHIGAN

CITY           SKY/WX    TMP DP  RH WIND       PRES   REMARKS
MANISTIQUE     PTSUNNY   57  52  84 SE6       30.12F
ESCANABA       PTSUNNY   55  48  76 SE8       30.09F
MENOMINEE      MOSUNNY   75  61  60 S8        30.06F
SAWYER-GWINN   MOSUNNY   72  57  60 S16       30.08F
$$
MIZ001>003-009>011-084-290000-
WESTERN UPPER MICHIGAN

CITY           SKY/WX    TMP DP  RH WIND       PRES   REMARKS
IRON MOUNTAIN  PTSUNNY   73  64  73 SE13      30.04F
HOUGHTON       PTSUNNY   49  44  83 N5        30.03F
COPPER HARBOR    N/A     53  47  79 SW16G26   30.02F
IRONWOOD       MOSUNNY   77  55  47 SW12G17   29.94F
$$

ABBREVIATIONS USED IN REMARKS
   TC - TEMPERATURE IN CELSIUS
  WCI - WIND CHILL INDEX
   HX - HEAT INDEX
  VSB - VISIBILITY




USA.gov is the U.S. government's official web portal to all federal, state and local government web resources and services.